Time,TemperatureF,DewpointF,PressureIn,WindDirection,WindDirectionDegrees,WindSpeedMPH,WindSpeedGustMPH,Humidity,HourlyPrecipIn,Conditions,Clouds,dailyrainin,SoftwareType,DateUTC
2013-01-06 00:00:00,38.0,33.0,30.12,West,267,1.0,1.0,82,0.00,,,0.00,Wunderground v.1.15,2013-01-06 05:00:00,
2013-01-06 00:01:00,38.0,33.0,30.12,West,267,1.0,8.0,82,0.00,,,0.00,Wunderground v.1.15,2013-01-06 05:01:00,
2013-01-06 00:04:00,38.1,33.1,30.12,West,267,1.0,8.0,82,0.00,,,0.00,Wunderground v.1.15,2013-01-06 05:04:00,
2013-01-06 00:10:00,38.2,32.9,30.12,West,267,0.0,8.0,81,0.00,,,0.00,Wunderground v.1.15,2013-01-06 05:10:00,
2013-01-06 00:15:00,38.2,33.5,30.11,West,267,0.0,8.0,83,0.00,,,0.00,Wunderground v.1.15,2013-01-06 05:15:00,
2013-01-06 00:20:00,38.1,33.1,30.11,West,267,0.0,8.0,82,0.00,,,0.00,Wunderground v.1.15,2013-01-06 05:20:00,
2013-01-06 00:25:00,38.0,33.6,30.11,West,267,0.0,8.0,84,0.00,,,0.00,Wunderground v.1.15,2013-01-06 05:25:00,
2013-01-06 00:30:00,38.0,33.3,30.11,West,267,0.0,8.0,83,0.00,,,0.00,Wunderground v.1.15,2013-01-06 05:30:00,
2013-01-06 00:35:00,38.0,33.9,30.11,NW,311,0.0,8.0,85,0.00,,,0.00,Wunderground v.1.15,2013-01-06 05:35:00,
2013-01-06 00:40:00,37.9,34.1,30.11,NW,311,0.0,8.0,86,0.00,,,0.00,Wunderground v.1.15,2013-01-06 05:40:00,
2013-01-06 00:45:00,37.6,33.8,30.11,NW,311,0.0,8.0,86,0.00,,,0.00,Wunderground v.1.15,2013-01-06 05:45:00,
2013-01-06 00:51:00,37.5,33.7,30.11,NW,311,0.0,8.0,86,0.00,,,0.00,Wunderground v.1.15,2013-01-06 05:51:00,
2013-01-06 00:56:00,37.3,33.5,30.11,NW,311,0.0,8.0,86,0.00,,,0.00,Wunderground v.1.15,2013-01-06 05:56:00,
2013-01-06 01:01:00,37.2,33.1,30.12,NW,311,0.0,8.0,85,0.00,,,0.00,Wunderground v.1.15,2013-01-06 06:01:00,
2013-01-06 01:06:00,37.2,33.4,30.12,NW,311,0.0,8.0,86,0.00,,,0.00,Wunderground v.1.15,2013-01-06 06:06:00,
2013-01-06 01:11:00,37.1,33.3,30.12,NW,311,0.0,8.0,86,0.00,,,0.00,Wunderground v.1.15,2013-01-06 06:11:00,
2013-01-06 01:16:00,37.1,33.6,30.11,NW,311,0.0,8.0,87,0.00,,,0.00,Wunderground v.1.15,2013-01-06 06:16:00,
2013-01-06 01:21:00,37.0,32.9,30.11,NW,311,0.0,8.0,85,0.00,,,0.00,Wunderground v.1.15,2013-01-06 06:21:00,
2013-01-06 01:26:00,37.1,32.7,30.11,WNW,296,2.0,8.0,84,0.00,,,0.00,Wunderground v.1.15,2013-01-06 06:26:00,
2013-01-06 01:32:00,37.3,32.9,30.11,WNW,296,4.0,8.0,84,0.00,,,0.00,Wunderground v.1.15,2013-01-06 06:32:00,
2013-01-06 01:37:00,37.4,33.0,30.11,WNW,294,2.0,8.0,84,0.00,,,0.00,Wunderground v.1.15,2013-01-06 06:37:00,
2013-01-06 01:42:00,37.4,33.0,30.11,WNW,294,1.0,8.0,84,0.00,,,0.00,Wunderground v.1.15,2013-01-06 06:42:00,
2013-01-06 01:47:00,37.5,33.4,30.11,WNW,294,2.0,8.0,85,0.00,,,0.00,Wunderground v.1.15,2013-01-06 06:47:00,
2013-01-06 01:52:00,37.5,34.0,30.11,WNW,294,3.0,8.0,87,0.00,,,0.00,Wunderground v.1.15,2013-01-06 06:52:00,
2013-01-06 01:57:00,37.5,34.0,30.11,WNW,294,2.0,8.0,87,0.00,,,0.00,Wunderground v.1.15,2013-01-06 06:57:00,
2013-01-06 02:02:00,37.5,34.3,30.11,WNW,294,1.0,8.0,88,0.00,,,0.00,Wunderground v.1.15,2013-01-06 07:02:00,
2013-01-06 02:07:00,37.5,34.6,30.11,WNW,294,1.0,8.0,89,0.00,,,0.00,Wunderground v.1.15,2013-01-06 07:07:00,
2013-01-06 02:13:00,37.5,34.6,30.11,WNW,294,1.0,8.0,89,0.00,,,0.00,Wunderground v.1.15,2013-01-06 07:13:00,
2013-01-06 02:18:00,37.5,34.8,30.11,WNW,294,0.0,8.0,90,0.00,,,0.00,Wunderground v.1.15,2013-01-06 07:18:00,
2013-01-06 02:23:00,37.5,35.1,30.11,WNW,294,0.0,8.0,91,0.00,,,0.00,Wunderground v.1.15,2013-01-06 07:23:00,
2013-01-06 02:28:00,37.5,35.1,30.11,WNW,294,0.0,8.0,91,0.00,,,0.00,Wunderground v.1.15,2013-01-06 07:28:00,
2013-01-06 02:34:00,37.5,35.4,30.11,WNW,294,1.0,8.0,92,0.00,,,0.00,Wunderground v.1.15,2013-01-06 07:34:00,
2013-01-06 02:39:00,37.5,35.4,30.11,WNW,294,2.0,8.0,92,0.00,,,0.00,Wunderground v.1.15,2013-01-06 07:39:00,
2013-01-06 02:45:00,37.5,35.7,30.10,WNW,294,2.0,8.0,93,0.00,,,0.00,Wunderground v.1.15,2013-01-06 07:45:00,
2013-01-06 02:50:00,37.5,35.7,30.10,WNW,294,1.0,1.0,93,0.00,,,0.00,Wunderground v.1.15,2013-01-06 07:50:00,
2013-01-06 02:55:00,37.4,35.6,30.10,WNW,294,0.0,8.0,93,0.00,,,0.00,Wunderground v.1.15,2013-01-06 07:55:00,
2013-01-06 03:00:00,37.4,35.6,30.10,WNW,294,0.0,8.0,93,0.00,,,0.00,Wunderground v.1.15,2013-01-06 08:00:00,
2013-01-06 03:05:00,37.3,35.5,30.10,WNW,294,1.0,8.0,93,0.00,,,0.00,Wunderground v.1.15,2013-01-06 08:05:00,
2013-01-06 03:10:00,37.2,35.4,30.10,WNW,294,1.0,1.0,93,0.00,,,0.00,Wunderground v.1.15,2013-01-06 08:10:00,
2013-01-06 03:16:00,37.1,35.5,30.09,WNW,294,1.0,8.0,94,0.00,,,0.00,Wunderground v.1.15,2013-01-06 08:16:00,
2013-01-06 03:21:00,37.0,35.4,30.09,WNW,294,1.0,8.0,94,0.00,,,0.00,Wunderground v.1.15,2013-01-06 08:21:00,
2013-01-06 03:26:00,36.9,35.3,30.09,WNW,294,1.0,8.0,94,0.00,,,0.00,Wunderground v.1.15,2013-01-06 08:26:00,
2013-01-06 03:31:00,36.8,35.2,30.08,WNW,294,1.0,8.0,94,0.00,,,0.00,Wunderground v.1.15,2013-01-06 08:31:00,
2013-01-06 03:36:00,36.6,35.3,30.08,WNW,296,2.0,8.0,95,0.00,,,0.00,Wunderground v.1.15,2013-01-06 08:36:00,
2013-01-06 03:41:00,36.5,35.2,30.08,WNW,296,2.0,8.0,95,0.00,,,0.00,Wunderground v.1.15,2013-01-06 08:41:00,
2013-01-06 03:47:00,36.4,35.1,30.07,NW,307,3.0,8.0,95,0.00,,,0.00,Wunderground v.1.15,2013-01-06 08:47:00,
2013-01-06 03:52:00,36.3,35.0,30.07,WNW,295,4.0,8.0,95,0.00,,,0.00,Wunderground v.1.15,2013-01-06 08:52:00,
2013-01-06 03:58:00,36.3,35.0,30.07,WNW,302,4.0,8.0,95,0.00,,,0.00,Wunderground v.1.15,2013-01-06 08:58:00,
2013-01-06 04:03:00,36.3,35.0,30.07,WNW,298,3.0,8.0,95,0.00,,,0.00,Wunderground v.1.15,2013-01-06 09:03:00,
2013-01-06 04:08:00,36.3,35.0,30.07,WNW,295,3.0,8.0,95,0.00,,,0.00,Wunderground v.1.15,2013-01-06 09:08:00,
2013-01-06 04:13:00,36.3,35.0,30.05,WNW,296,3.0,8.0,95,0.00,,,0.00,Wunderground v.1.15,2013-01-06 09:13:00,
2013-01-06 04:18:00,36.3,35.3,30.05,NW,309,3.0,8.0,96,0.00,,,0.00,Wunderground v.1.15,2013-01-06 09:18:00,
2013-01-06 04:24:00,36.3,35.3,30.05,NW,304,2.0,8.0,96,0.00,,,0.00,Wunderground v.1.15,2013-01-06 09:24:00,
2013-01-06 04:29:00,36.3,35.3,30.05,NW,304,1.0,8.0,96,0.00,,,0.00,Wunderground v.1.15,2013-01-06 09:29:00,
2013-01-06 04:34:00,36.3,35.3,30.05,NW,304,1.0,8.0,96,0.00,,,0.00,Wunderground v.1.15,2013-01-06 09:34:00,
2013-01-06 04:39:00,36.3,35.3,30.05,WNW,299,2.0,8.0,96,0.00,,,0.00,Wunderground v.1.15,2013-01-06 09:39:00,
2013-01-06 04:44:00,36.3,35.3,30.04,WNW,299,1.0,8.0,96,0.00,,,0.00,Wunderground v.1.15,2013-01-06 09:44:00,
2013-01-06 04:49:00,36.3,35.3,30.04,WNW,299,1.0,8.0,96,0.00,,,0.00,Wunderground v.1.15,2013-01-06 09:49:00,
2013-01-06 04:54:00,36.2,35.2,30.04,WNW,295,3.0,8.0,96,0.00,,,0.00,Wunderground v.1.15,2013-01-06 09:54:00,
2013-01-06 04:59:00,36.2,35.2,30.04,WNW,300,3.0,8.0,96,0.00,,,0.00,Wunderground v.1.15,2013-01-06 09:59:00,
2013-01-06 05:04:00,36.2,35.2,30.04,NW,323,4.0,8.0,96,0.00,,,0.00,Wunderground v.1.15,2013-01-06 10:04:00,
2013-01-06 05:09:00,36.3,35.3,30.04,NW,304,4.0,8.0,96,0.00,,,0.00,Wunderground v.1.15,2013-01-06 10:09:00,
2013-01-06 05:15:00,36.3,35.3,30.03,NW,315,4.0,8.0,96,0.00,,,0.00,Wunderground v.1.15,2013-01-06 10:15:00,
2013-01-06 05:20:00,36.4,35.6,30.03,WNW,300,4.0,4.0,97,0.00,,,0.00,Wunderground v.1.15,2013-01-06 10:20:00,
2013-01-06 05:25:00,36.4,35.6,30.03,WNW,303,4.0,8.0,97,0.00,,,0.00,Wunderground v.1.15,2013-01-06 10:25:00,
2013-01-06 05:30:00,36.4,35.6,30.03,WNW,303,4.0,8.0,97,0.00,,,0.00,Wunderground v.1.15,2013-01-06 10:30:00,
2013-01-06 05:36:00,36.4,35.4,30.03,WNW,297,4.0,8.0,96,0.00,,,0.00,Wunderground v.1.15,2013-01-06 10:36:00,
2013-01-06 05:41:00,36.4,35.4,30.03,WNW,300,4.0,6.0,96,0.00,,,0.00,Wunderground v.1.15,2013-01-06 10:41:00,
2013-01-06 05:46:00,36.5,35.7,30.03,WNW,295,3.0,8.0,97,0.00,,,0.00,Wunderground v.1.15,2013-01-06 10:46:00,
2013-01-06 05:52:00,36.5,35.7,30.03,WNW,295,3.0,8.0,97,0.00,,,0.00,Wunderground v.1.15,2013-01-06 10:52:00,
2013-01-06 05:57:00,36.5,35.7,30.04,NW,325,3.0,8.0,97,0.00,,,0.00,Wunderground v.1.15,2013-01-06 10:57:00,
2013-01-06 06:02:00,36.5,35.7,30.04,NW,311,3.0,8.0,97,0.00,,,0.00,Wunderground v.1.15,2013-01-06 11:02:00,
2013-01-06 06:07:00,36.5,35.7,30.04,NW,311,3.0,8.0,97,0.00,,,0.00,Wunderground v.1.15,2013-01-06 11:07:00,
2013-01-06 06:12:00,36.5,35.7,30.04,NW,319,3.0,8.0,97,0.00,,,0.00,Wunderground v.1.15,2013-01-06 11:12:00,
2013-01-06 06:18:00,36.4,35.6,30.04,NW,309,4.0,8.0,97,0.00,,,0.00,Wunderground v.1.15,2013-01-06 11:18:00,
2013-01-06 06:24:00,36.4,35.6,30.04,WNW,286,4.0,8.0,97,0.00,,,0.00,Wunderground v.1.15,2013-01-06 11:24:00,
2013-01-06 06:29:00,36.4,35.6,30.04,NW,319,3.0,8.0,97,0.00,,,0.00,Wunderground v.1.15,2013-01-06 11:29:00,
2013-01-06 06:34:00,36.4,35.6,30.04,WNW,301,3.0,8.0,97,0.00,,,0.00,Wunderground v.1.15,2013-01-06 11:34:00,
2013-01-06 06:39:00,36.4,35.6,30.04,WNW,301,4.0,8.0,97,0.00,,,0.00,Wunderground v.1.15,2013-01-06 11:39:00,
2013-01-06 06:44:00,36.5,35.7,30.04,WNW,286,5.0,8.0,97,0.00,,,0.00,Wunderground v.1.15,2013-01-06 11:44:00,
2013-01-06 06:49:00,36.5,35.7,30.04,WNW,298,4.0,8.0,97,0.00,,,0.00,Wunderground v.1.15,2013-01-06 11:49:00,
2013-01-06 06:54:00,36.5,35.7,30.04,WNW,297,3.0,8.0,97,0.00,,,0.00,Wunderground v.1.15,2013-01-06 11:54:00,
2013-01-06 07:00:00,36.6,35.8,30.04,WNW,297,2.0,8.0,97,0.00,,,0.00,Wunderground v.1.15,2013-01-06 12:00:00,
2013-01-06 07:05:00,36.6,35.8,30.04,NW,305,3.0,8.0,97,0.00,,,0.00,Wunderground v.1.15,2013-01-06 12:05:00,
2013-01-06 07:10:00,36.7,35.9,30.04,WNW,298,5.0,8.0,97,0.00,,,0.00,Wunderground v.1.15,2013-01-06 12:10:00,
2013-01-06 07:15:00,36.8,36.0,30.05,NW,324,6.0,8.0,97,0.00,,,0.00,Wunderground v.1.15,2013-01-06 12:15:00,
2013-01-06 07:20:00,36.8,36.0,30.05,WNW,296,6.0,10.0,97,0.00,,,0.00,Wunderground v.1.15,2013-01-06 12:20:00,
2013-01-06 07:25:00,36.8,36.0,30.05,WNW,302,6.0,10.0,97,0.00,,,0.00,Wunderground v.1.15,2013-01-06 12:25:00,
2013-01-06 07:30:00,36.8,36.0,30.05,NW,312,7.0,7.0,97,0.00,,,0.00,Wunderground v.1.15,2013-01-06 12:30:00,
2013-01-06 07:36:00,36.8,36.0,30.05,NW,304,7.0,8.0,97,0.00,,,0.00,Wunderground v.1.15,2013-01-06 12:36:00,
2013-01-06 07:41:00,36.8,36.0,30.05,NNW,329,5.0,9.0,97,0.00,,,0.00,Wunderground v.1.15,2013-01-06 12:41:00,
2013-01-06 07:46:00,36.8,36.0,30.05,NW,311,5.0,9.0,97,0.00,,,0.00,Wunderground v.1.15,2013-01-06 12:46:00,
2013-01-06 07:51:00,36.9,36.1,30.05,NW,310,6.0,8.0,97,0.00,,,0.00,Wunderground v.1.15,2013-01-06 12:51:00,
2013-01-06 07:56:00,37.0,36.2,30.05,NW,304,5.0,8.0,97,0.00,,,0.00,Wunderground v.1.15,2013-01-06 12:56:00,
2013-01-06 08:01:00,37.0,36.2,30.06,WNW,292,5.0,8.0,97,0.00,,,0.00,Wunderground v.1.15,2013-01-06 13:01:00,
2013-01-06 08:06:00,37.1,36.3,30.06,NW,317,7.0,11.0,97,0.00,,,0.00,Wunderground v.1.15,2013-01-06 13:06:00,
2013-01-06 08:11:00,37.1,36.3,30.06,NNW,337,6.0,8.0,97,0.00,,,0.00,Wunderground v.1.15,2013-01-06 13:11:00,
2013-01-06 08:16:00,37.2,36.4,30.05,West,281,5.0,8.0,97,0.00,,,0.00,Wunderground v.1.15,2013-01-06 13:16:00,
2013-01-06 08:21:00,37.3,36.5,30.05,WNW,298,6.0,8.0,97,0.00,,,0.00,Wunderground v.1.15,2013-01-06 13:21:00,
2013-01-06 08:26:00,37.4,36.6,30.05,WNW,292,6.0,9.0,97,0.00,,,0.00,Wunderground v.1.15,2013-01-06 13:26:00,
2013-01-06 08:31:00,37.5,36.7,30.05,NW,312,6.0,8.0,97,0.00,,,0.00,Wunderground v.1.15,2013-01-06 13:31:00,
2013-01-06 08:36:00,37.6,36.8,30.05,NW,308,5.0,8.0,97,0.00,,,0.00,Wunderground v.1.15,2013-01-06 13:36:00,
2013-01-06 08:41:00,37.8,37.0,30.05,NW,308,5.0,8.0,97,0.00,,,0.00,Wunderground v.1.15,2013-01-06 13:41:00,
2013-01-06 08:46:00,38.1,37.3,30.05,WNW,292,5.0,10.0,97,0.00,,,0.00,Wunderground v.1.15,2013-01-06 13:46:00,
2013-01-06 08:51:00,38.4,37.6,30.05,NW,315,5.0,8.0,97,0.00,,,0.00,Wunderground v.1.15,2013-01-06 13:51:00,
2013-01-06 08:56:00,38.6,37.6,30.05,WNW,291,6.0,9.0,96,0.00,,,0.00,Wunderground v.1.15,2013-01-06 13:56:00,
2013-01-06 09:01:00,38.7,37.4,30.05,WNW,294,6.0,8.0,95,0.00,,,0.00,Wunderground v.1.15,2013-01-06 14:01:00,
2013-01-06 09:07:00,38.9,37.6,30.05,WNW,288,5.0,8.0,95,0.00,,,0.00,Wunderground v.1.15,2013-01-06 14:07:00,
2013-01-06 09:12:00,39.0,37.7,30.05,WNW,288,3.0,8.0,95,0.00,,,0.00,Wunderground v.1.15,2013-01-06 14:12:00,
2013-01-06 09:17:00,39.0,37.7,30.05,WNW,288,1.0,8.0,95,0.00,,,0.00,Wunderground v.1.15,2013-01-06 14:17:00,
2013-01-06 09:22:00,39.0,37.7,30.05,WNW,288,0.0,8.0,95,0.00,,,0.00,Wunderground v.1.15,2013-01-06 14:22:00,
2013-01-06 09:27:00,39.1,37.8,30.05,WNW,286,1.0,8.0,95,0.00,,,0.00,Wunderground v.1.15,2013-01-06 14:27:00,
2013-01-06 09:32:00,39.3,37.7,30.05,WNW,286,2.0,8.0,94,0.00,,,0.00,Wunderground v.1.15,2013-01-06 14:32:00,
2013-01-06 09:37:00,39.4,37.8,30.05,WNW,300,2.0,8.0,94,0.00,,,0.00,Wunderground v.1.15,2013-01-06 14:37:00,
2013-01-06 09:42:00,39.5,37.9,30.04,WNW,286,1.0,8.0,94,0.00,,,0.00,Wunderground v.1.15,2013-01-06 14:42:00,
2013-01-06 09:47:00,39.6,37.7,30.04,WNW,286,1.0,8.0,93,0.00,,,0.00,Wunderground v.1.15,2013-01-06 14:47:00,
2013-01-06 09:52:00,39.8,38.2,30.04,WNW,291,1.0,4.0,94,0.00,,,0.00,Wunderground v.1.15,2013-01-06 14:52:00,
2013-01-06 09:57:00,40.3,38.7,30.03,WNW,290,2.0,8.0,94,0.00,,,0.00,Wunderground v.1.15,2013-01-06 14:57:00,
2013-01-06 10:02:00,40.8,38.9,30.03,NW,311,4.0,8.0,93,0.00,,,0.00,Wunderground v.1.15,2013-01-06 15:02:00,
2013-01-06 10:07:00,41.2,38.8,30.03,NW,311,2.0,8.0,91,0.00,,,0.00,Wunderground v.1.15,2013-01-06 15:07:00,
2013-01-06 10:12:00,41.8,39.4,30.04,NW,311,0.0,8.0,91,0.00,,,0.00,Wunderground v.1.15,2013-01-06 15:12:00,
2013-01-06 10:17:00,42.5,39.5,30.04,NW,311,1.0,8.0,89,0.00,,,0.00,Wunderground v.1.15,2013-01-06 15:17:00,
2013-01-06 10:22:00,43.2,39.9,30.04,NW,311,1.0,8.0,88,0.00,,,0.00,Wunderground v.1.15,2013-01-06 15:22:00,
2013-01-06 10:28:00,43.9,40.0,30.04,WNW,292,1.0,8.0,86,0.00,,,0.00,Wunderground v.1.15,2013-01-06 15:28:00,
2013-01-06 10:33:00,44.3,40.1,30.04,NW,316,3.0,11.0,85,0.00,,,0.00,Wunderground v.1.15,2013-01-06 15:33:00,
2013-01-06 10:39:00,44.5,39.7,30.04,WNW,300,6.0,11.0,83,0.00,,,0.00,Wunderground v.1.15,2013-01-06 15:39:00,
2013-01-06 10:44:00,44.7,39.5,30.03,WNW,293,7.0,9.0,82,0.00,,,0.00,Wunderground v.1.15,2013-01-06 15:44:00,
2013-01-06 10:49:00,45.0,39.2,30.03,WNW,295,7.0,10.0,80,0.00,,,0.00,Wunderground v.1.15,2013-01-06 15:49:00,
2013-01-06 10:54:00,45.4,39.6,30.03,NW,315,7.0,12.0,80,0.00,,,0.00,Wunderground v.1.15,2013-01-06 15:54:00,
2013-01-06 10:59:00,45.7,39.6,30.03,NNW,338,7.0,12.0,79,0.00,,,0.00,Wunderground v.1.15,2013-01-06 15:59:00,
2013-01-06 11:04:00,45.8,39.0,30.03,NW,325,8.0,8.0,77,0.00,,,0.00,Wunderground v.1.15,2013-01-06 16:04:00,
2013-01-06 11:09:00,45.7,38.6,30.03,NW,311,8.0,12.0,76,0.00,,,0.00,Wunderground v.1.15,2013-01-06 16:09:00,
2013-01-06 11:14:00,45.5,38.4,30.03,NNW,342,9.0,12.0,76,0.00,,,0.00,Wunderground v.1.15,2013-01-06 16:14:00,
2013-01-06 11:19:00,45.7,38.6,30.03,NNW,338,10.0,10.0,76,0.00,,,0.00,Wunderground v.1.15,2013-01-06 16:19:00,
2013-01-06 11:24:00,45.8,38.3,30.03,WNW,284,10.0,15.0,75,0.00,,,0.00,Wunderground v.1.15,2013-01-06 16:24:00,
2013-01-06 11:30:00,45.9,38.8,30.03,NW,310,9.0,10.0,76,0.00,,,0.00,Wunderground v.1.15,2013-01-06 16:30:00,
2013-01-06 11:35:00,46.6,39.4,30.03,NW,315,8.0,13.0,76,0.00,,,0.00,Wunderground v.1.15,2013-01-06 16:35:00,
2013-01-06 11:40:00,46.8,38.9,30.03,NW,310,9.0,15.0,74,0.00,,,0.00,Wunderground v.1.15,2013-01-06 16:40:00,
2013-01-06 11:45:00,46.9,38.7,30.02,WNW,303,10.0,15.0,73,0.00,,,0.00,Wunderground v.1.15,2013-01-06 16:45:00,
2013-01-06 11:50:00,47.2,38.6,30.02,NW,320,9.0,9.0,72,0.00,,,0.00,Wunderground v.1.15,2013-01-06 16:50:00,
2013-01-06 11:55:00,47.2,39.0,30.02,NW,306,10.0,13.0,73,0.00,,,0.00,Wunderground v.1.15,2013-01-06 16:55:00,
2013-01-06 12:00:00,47.4,38.1,30.01,NW,305,9.0,9.0,70,0.00,,,0.00,Wunderground v.1.15,2013-01-06 17:00:00,
2013-01-06 12:05:00,47.5,38.2,30.01,WNW,292,8.0,11.0,70,0.00,,,0.00,Wunderground v.1.15,2013-01-06 17:05:00,
2013-01-06 12:11:00,47.6,39.0,30.01,NNW,327,8.0,11.0,72,0.00,,,0.00,Wunderground v.1.15,2013-01-06 17:11:00,
2013-01-06 12:17:00,48.2,39.2,29.99,NW,304,7.0,11.0,71,0.00,,,0.00,Wunderground v.1.15,2013-01-06 17:17:00,
2013-01-06 12:22:00,48.8,39.4,29.99,NNW,343,7.0,10.0,70,0.00,,,0.00,Wunderground v.1.15,2013-01-06 17:22:00,
2013-01-06 12:27:00,48.7,39.0,29.99,NNW,345,7.0,13.0,69,0.00,,,0.00,Wunderground v.1.15,2013-01-06 17:27:00,
2013-01-06 12:32:00,48.6,38.9,29.99,NW,319,8.0,12.0,69,0.00,,,0.00,Wunderground v.1.15,2013-01-06 17:32:00,
2013-01-06 12:37:00,48.9,38.8,29.99,NW,312,9.0,12.0,68,0.00,,,0.00,Wunderground v.1.15,2013-01-06 17:37:00,
2013-01-06 12:42:00,49.2,38.7,29.98,NW,311,8.0,9.0,67,0.00,,,0.00,Wunderground v.1.15,2013-01-06 17:42:00,
2013-01-06 12:48:00,49.4,38.9,29.98,WNW,297,6.0,11.0,67,0.00,,,0.00,Wunderground v.1.15,2013-01-06 17:48:00,
2013-01-06 12:53:00,49.7,39.2,29.98,WNW,300,7.0,8.0,67,0.00,,,0.00,Wunderground v.1.15,2013-01-06 17:53:00,
2013-01-06 12:59:00,50.1,39.2,29.97,North,350,7.0,9.0,66,0.00,,,0.00,Wunderground v.1.15,2013-01-06 17:59:00,
2013-01-06 13:04:00,50.3,39.4,29.97,NNW,330,7.0,10.0,66,0.00,,,0.00,Wunderground v.1.15,2013-01-06 18:04:00,
2013-01-06 13:09:00,50.3,38.2,29.97,NW,322,7.0,10.0,63,0.00,,,0.00,Wunderground v.1.15,2013-01-06 18:09:00,
2013-01-06 13:14:00,50.0,37.9,29.96,NW,317,7.0,11.0,63,0.00,,,0.00,Wunderground v.1.15,2013-01-06 18:14:00,
2013-01-06 13:20:00,50.4,37.4,29.96,NNW,331,7.0,10.0,61,0.00,,,0.00,Wunderground v.1.15,2013-01-06 18:20:00,
2013-01-06 13:25:00,50.5,38.8,29.96,NW,325,8.0,12.0,64,0.00,,,0.00,Wunderground v.1.15,2013-01-06 18:25:00,
2013-01-06 13:30:00,50.0,37.5,29.95,NW,313,8.0,8.0,62,0.00,,,0.00,Wunderground v.1.15,2013-01-06 18:30:00,
2013-01-06 13:35:00,49.2,37.5,29.95,NW,304,7.0,9.0,64,0.00,,,0.00,Wunderground v.1.15,2013-01-06 18:35:00,
2013-01-06 13:40:00,49.3,37.6,29.95,WNW,290,6.0,8.0,64,0.00,,,0.00,Wunderground v.1.15,2013-01-06 18:40:00,
2013-01-06 13:45:00,50.1,38.0,29.94,NW,314,6.0,11.0,63,0.00,,,0.00,Wunderground v.1.15,2013-01-06 18:45:00,
2013-01-06 13:50:00,50.2,37.7,29.94,NW,308,7.0,11.0,62,0.00,,,0.00,Wunderground v.1.15,2013-01-06 18:50:00,
2013-01-06 13:55:00,50.3,37.8,29.94,WNW,303,8.0,11.0,62,0.00,,,0.00,Wunderground v.1.15,2013-01-06 18:55:00,
2013-01-06 14:00:00,50.9,34.8,29.94,NW,316,8.0,8.0,54,0.00,,,0.00,Wunderground v.1.15,2013-01-06 19:00:00,
2013-01-06 14:05:00,51.6,33.0,29.94,North,5,7.0,9.0,49,0.00,,,0.00,Wunderground v.1.15,2013-01-06 19:05:00,
2013-01-06 14:10:00,51.6,32.0,29.94,NW,325,6.0,12.0,47,0.00,,,0.00,Wunderground v.1.15,2013-01-06 19:10:00,
2013-01-06 14:16:00,51.6,32.0,29.93,NW,314,8.0,12.0,47,0.00,,,0.00,Wunderground v.1.15,2013-01-06 19:16:00,
2013-01-06 14:21:00,51.4,31.8,29.93,WNW,300,10.0,18.0,47,0.00,,,0.00,Wunderground v.1.15,2013-01-06 19:21:00,
2013-01-06 14:26:00,51.7,31.6,29.93,NW,307,10.0,18.0,46,0.00,,,0.00,Wunderground v.1.15,2013-01-06 19:26:00,
2013-01-06 14:31:00,51.4,30.7,29.92,NW,313,11.0,12.0,45,0.00,,,0.00,Wunderground v.1.15,2013-01-06 19:31:00,
2013-01-06 14:36:00,51.5,30.8,29.92,NNW,347,10.0,13.0,45,0.00,,,0.00,Wunderground v.1.15,2013-01-06 19:36:00,
2013-01-06 14:47:00,51.8,31.7,29.92,NNW,337,9.0,13.0,46,0.00,,,0.00,Wunderground v.1.15,2013-01-06 19:47:00,
2013-01-06 14:52:00,51.6,31.5,29.92,WSW,246,10.0,10.0,46,0.00,,,0.00,Wunderground v.1.15,2013-01-06 19:52:00,
2013-01-06 14:58:00,51.6,32.0,29.93,WNW,300,7.0,11.0,47,0.00,,,0.00,Wunderground v.1.15,2013-01-06 19:58:00,
2013-01-06 15:04:00,51.2,31.1,29.93,WNW,286,6.0,8.0,46,0.00,,,0.00,Wunderground v.1.15,2013-01-06 20:04:00,
2013-01-06 15:09:00,50.8,31.3,29.93,North,5,4.0,8.0,47,0.00,,,0.00,Wunderground v.1.15,2013-01-06 20:09:00,
2013-01-06 15:12:00,50.8,31.8,29.94,North,11,3.0,8.0,48,0.00,,,0.00,Wunderground v.1.15,2013-01-06 20:12:00,
2013-01-06 15:15:00,51.0,32.5,29.94,ENE,58,3.0,8.0,49,0.00,,,0.00,Wunderground v.1.15,2013-01-06 20:15:00,
2013-01-06 15:20:00,51.3,32.3,29.94,NNE,24,2.0,2.0,48,0.00,,,0.00,Wunderground v.1.15,2013-01-06 20:20:00,
2013-01-06 15:25:00,51.3,33.3,29.94,North,355,1.0,8.0,50,0.00,,,0.00,Wunderground v.1.15,2013-01-06 20:25:00,
2013-01-06 15:30:00,50.8,33.3,29.94,North,5,2.0,8.0,51,0.00,,,0.00,Wunderground v.1.15,2013-01-06 20:30:00,
2013-01-06 15:35:00,50.7,33.2,29.94,NW,319,2.0,8.0,51,0.00,,,0.00,Wunderground v.1.15,2013-01-06 20:35:00,
2013-01-06 15:40:00,50.3,32.4,29.94,NW,309,3.0,3.0,50,0.00,,,0.00,Wunderground v.1.15,2013-01-06 20:40:00,
2013-01-06 15:45:00,49.8,32.9,29.94,NNW,332,3.0,8.0,52,0.00,,,0.00,Wunderground v.1.15,2013-01-06 20:45:00,
2013-01-06 15:50:00,49.5,32.6,29.94,NW,312,2.0,11.0,52,0.00,,,0.00,Wunderground v.1.15,2013-01-06 20:50:00,
2013-01-06 15:55:00,49.1,32.7,29.94,NNW,331,4.0,11.0,53,0.00,,,0.00,Wunderground v.1.15,2013-01-06 20:55:00,
2013-01-06 16:01:00,49.2,32.8,29.95,NNW,327,5.0,8.0,53,0.00,,,0.00,Wunderground v.1.15,2013-01-06 21:01:00,
2013-01-06 16:07:00,49.6,32.7,29.95,WNW,298,5.0,8.0,52,0.00,,,0.00,Wunderground v.1.15,2013-01-06 21:07:00,
2013-01-06 16:13:00,49.7,32.8,29.95,WNW,302,3.0,8.0,52,0.00,,,0.00,Wunderground v.1.15,2013-01-06 21:13:00,
2013-01-06 16:18:00,49.3,32.9,29.95,WNW,290,3.0,8.0,53,0.00,,,0.00,Wunderground v.1.15,2013-01-06 21:18:00,
2013-01-06 16:23:00,48.7,31.8,29.95,NNW,344,3.0,8.0,52,0.00,,,0.00,Wunderground v.1.15,2013-01-06 21:23:00,
2013-01-06 16:28:00,48.1,32.2,29.95,WNW,298,3.0,8.0,54,0.00,,,0.00,Wunderground v.1.15,2013-01-06 21:28:00,
2013-01-06 16:33:00,47.4,32.0,29.95,NNW,330,3.0,8.0,55,0.00,,,0.00,Wunderground v.1.15,2013-01-06 21:33:00,
2013-01-06 16:38:00,47.1,31.7,29.95,NNE,28,3.0,8.0,55,0.00,,,0.00,Wunderground v.1.15,2013-01-06 21:38:00,
2013-01-06 16:43:00,46.8,31.5,29.95,SW,228,2.0,8.0,55,0.00,,,0.00,Wunderground v.1.15,2013-01-06 21:43:00,
2013-01-06 16:48:00,46.4,31.5,29.95,WNW,298,3.0,8.0,56,0.00,,,0.00,Wunderground v.1.15,2013-01-06 21:48:00,
2013-01-06 16:54:00,46.4,32.0,29.95,NNW,328,4.0,8.0,57,0.00,,,0.00,Wunderground v.1.15,2013-01-06 21:54:00,
2013-01-06 16:59:00,45.7,33.0,29.95,NW,313,4.0,9.0,61,0.00,,,0.00,Wunderground v.1.15,2013-01-06 21:59:00,
2013-01-06 17:05:00,45.2,32.9,29.95,NW,317,6.0,8.0,62,0.00,,,0.00,Wunderground v.1.15,2013-01-06 22:05:00,
2013-01-06 17:10:00,44.6,32.8,29.95,NW,313,5.0,8.0,63,0.00,,,0.00,Wunderground v.1.15,2013-01-06 22:10:00,
2013-01-06 17:15:00,44.2,32.4,29.95,NW,311,5.0,13.0,63,0.00,,,0.00,Wunderground v.1.15,2013-01-06 22:15:00,
2013-01-06 17:20:00,43.8,33.6,29.95,NW,312,6.0,8.0,67,0.00,,,0.00,Wunderground v.1.15,2013-01-06 22:20:00,
2013-01-06 17:25:00,43.3,33.8,29.95,NW,308,6.0,9.0,69,0.00,,,0.00,Wunderground v.1.15,2013-01-06 22:25:00,
2013-01-06 17:30:00,42.8,33.7,29.95,NW,313,7.0,8.0,70,0.00,,,0.00,Wunderground v.1.15,2013-01-06 22:30:00,
2013-01-06 17:36:00,42.4,33.7,29.95,NW,309,7.0,9.0,71,0.00,,,0.00,Wunderground v.1.15,2013-01-06 22:36:00,
2013-01-06 17:41:00,42.0,33.6,29.95,NW,313,7.0,11.0,72,0.00,,,0.00,Wunderground v.1.15,2013-01-06 22:41:00,
2013-01-06 17:46:00,41.8,33.8,29.97,NW,308,7.0,11.0,73,0.00,,,0.00,Wunderground v.1.15,2013-01-06 22:46:00,
2013-01-06 17:51:00,41.5,33.5,29.97,NW,305,7.0,8.0,73,0.00,,,0.00,Wunderground v.1.15,2013-01-06 22:51:00,
2013-01-06 17:56:00,41.3,33.6,29.97,NNW,337,6.0,8.0,74,0.00,,,0.00,Wunderground v.1.15,2013-01-06 22:56:00,
2013-01-06 18:01:00,41.1,33.4,29.97,WNW,296,6.0,13.0,74,0.00,,,0.00,Wunderground v.1.15,2013-01-06 23:01:00,
2013-01-06 18:06:00,40.9,33.6,29.97,NW,313,8.0,13.0,75,0.00,,,0.00,Wunderground v.1.15,2013-01-06 23:06:00,
2013-01-06 18:12:00,40.6,33.3,29.98,NW,309,7.0,8.0,75,0.00,,,0.00,Wunderground v.1.15,2013-01-06 23:12:00,
2013-01-06 18:17:00,40.3,33.7,29.98,WNW,302,5.0,8.0,77,0.00,,,0.00,Wunderground v.1.15,2013-01-06 23:17:00,
2013-01-06 18:22:00,40.1,33.5,29.98,NW,321,5.0,8.0,77,0.00,,,0.00,Wunderground v.1.15,2013-01-06 23:22:00,
2013-01-06 18:27:00,39.8,33.2,29.99,NW,313,5.0,8.0,77,0.00,,,0.00,Wunderground v.1.15,2013-01-06 23:27:00,
2013-01-06 18:32:00,39.6,33.6,29.99,NW,311,6.0,10.0,79,0.00,,,0.00,Wunderground v.1.15,2013-01-06 23:32:00,
2013-01-06 18:37:00,39.3,33.0,29.99,NW,318,7.0,10.0,78,0.00,,,0.00,Wunderground v.1.15,2013-01-06 23:37:00,
2013-01-06 18:42:00,39.1,32.8,30.00,NW,322,7.0,10.0,78,0.00,,,0.00,Wunderground v.1.15,2013-01-06 23:42:00,
2013-01-06 18:47:00,38.9,32.6,30.00,NNW,338,7.0,10.0,78,0.00,,,0.00,Wunderground v.1.15,2013-01-06 23:47:00,
2013-01-06 18:53:00,38.6,32.6,30.00,NW,323,8.0,8.0,79,0.00,,,0.00,Wunderground v.1.15,2013-01-06 23:53:00,
2013-01-06 18:58:00,38.4,32.5,30.01,NW,304,8.0,10.0,79,0.00,,,0.00,Wunderground v.1.15,2013-01-06 23:58:00,
2013-01-06 19:04:00,38.2,32.3,30.01,WNW,298,8.0,10.0,79,0.00,,,0.00,Wunderground v.1.15,2013-01-07 00:04:00,
2013-01-06 19:11:00,38.0,31.7,30.01,NW,306,9.0,12.0,78,0.00,,,0.00,Wunderground v.1.15,2013-01-07 00:11:00,
2013-01-06 19:17:00,37.8,31.6,30.02,WNW,291,9.0,15.0,78,0.00,,,0.00,Wunderground v.1.15,2013-01-07 00:17:00,
2013-01-06 19:22:00,37.7,31.1,30.02,West,281,9.0,10.0,77,0.00,,,0.00,Wunderground v.1.15,2013-01-07 00:22:00,
2013-01-06 19:28:00,37.6,30.7,30.02,NW,309,9.0,13.0,76,0.00,,,0.00,Wunderground v.1.15,2013-01-07 00:28:00,
2013-01-06 19:33:00,37.6,30.4,30.02,WNW,303,9.0,11.0,75,0.00,,,0.00,Wunderground v.1.15,2013-01-07 00:33:00,
2013-01-06 19:38:00,37.7,30.5,30.02,NW,318,10.0,15.0,75,0.00,,,0.00,Wunderground v.1.15,2013-01-07 00:38:00,
2013-01-06 19:43:00,37.7,30.2,30.02,NW,318,9.0,13.0,74,0.00,,,0.00,Wunderground v.1.15,2013-01-07 00:43:00,
2013-01-06 19:48:00,37.8,30.3,30.02,NW,308,8.0,13.0,74,0.00,,,0.00,Wunderground v.1.15,2013-01-07 00:48:00,
2013-01-06 19:54:00,37.8,30.3,30.02,NW,304,9.0,9.0,74,0.00,,,0.00,Wunderground v.1.15,2013-01-07 00:54:00,
2013-01-06 19:59:00,37.7,30.2,30.02,NW,311,8.0,11.0,74,0.00,,,0.00,Wunderground v.1.15,2013-01-07 00:59:00,
2013-01-06 20:04:00,37.6,30.1,30.02,NW,306,7.0,8.0,74,0.00,,,0.00,Wunderground v.1.15,2013-01-07 01:04:00,
2013-01-06 20:09:00,37.5,30.3,30.02,NW,305,6.0,8.0,75,0.00,,,0.00,Wunderground v.1.15,2013-01-07 01:09:00,
2013-01-06 20:14:00,37.3,30.4,30.03,West,274,7.0,13.0,76,0.00,,,0.00,Wunderground v.1.15,2013-01-07 01:14:00,
2013-01-06 20:20:00,37.2,30.3,30.03,WNW,294,8.0,8.0,76,0.00,,,0.00,Wunderground v.1.15,2013-01-07 01:20:00,
2013-01-06 20:25:00,37.1,30.2,30.03,NW,304,6.0,10.0,76,0.00,,,0.00,Wunderground v.1.15,2013-01-07 01:25:00,
2013-01-06 20:30:00,37.0,30.5,30.03,WNW,293,7.0,9.0,77,0.00,,,0.00,Wunderground v.1.15,2013-01-07 01:30:00,
2013-01-06 20:35:00,37.0,30.5,30.03,NW,307,8.0,9.0,77,0.00,,,0.00,Wunderground v.1.15,2013-01-07 01:35:00,
2013-01-06 20:40:00,37.0,30.1,30.03,NW,311,8.0,11.0,76,0.00,,,0.00,Wunderground v.1.15,2013-01-07 01:40:00,
2013-01-06 20:45:00,37.2,30.3,30.02,NW,321,9.0,14.0,76,0.00,,,0.00,Wunderground v.1.15,2013-01-07 01:45:00,
2013-01-06 20:50:00,37.3,30.4,30.02,West,279,9.0,9.0,76,0.00,,,0.00,Wunderground v.1.15,2013-01-07 01:50:00,
2013-01-06 20:55:00,37.4,30.5,30.02,NW,310,8.0,9.0,76,0.00,,,0.00,Wunderground v.1.15,2013-01-07 01:55:00,
2013-01-06 21:00:00,37.5,30.3,30.04,WNW,301,7.0,8.0,75,0.00,,,0.00,Wunderground v.1.15,2013-01-07 02:00:00,
2013-01-06 21:06:00,37.7,30.2,30.04,North,355,7.0,12.0,74,0.00,,,0.00,Wunderground v.1.15,2013-01-07 02:06:00,
2013-01-06 21:11:00,37.7,30.2,30.04,NW,313,8.0,8.0,74,0.00,,,0.00,Wunderground v.1.15,2013-01-07 02:11:00,
2013-01-06 21:16:00,37.8,30.3,30.04,WNW,303,6.0,8.0,74,0.00,,,0.00,Wunderground v.1.15,2013-01-07 02:16:00,
2013-01-06 21:21:00,37.7,30.2,30.04,WNW,300,5.0,8.0,74,0.00,,,0.00,Wunderground v.1.15,2013-01-07 02:21:00,
2013-01-06 21:26:00,37.7,30.2,30.04,NNW,329,5.0,8.0,74,0.00,,,0.00,Wunderground v.1.15,2013-01-07 02:26:00,
2013-01-06 21:32:00,37.8,29.9,30.04,NNW,329,5.0,8.0,73,0.00,,,0.00,Wunderground v.1.15,2013-01-07 02:32:00,
2013-01-06 21:37:00,37.8,29.9,30.04,NW,304,5.0,8.0,73,0.00,,,0.00,Wunderground v.1.15,2013-01-07 02:37:00,
2013-01-06 21:42:00,37.9,30.0,30.06,WNW,302,4.0,8.0,73,0.00,,,0.00,Wunderground v.1.15,2013-01-07 02:42:00,
2013-01-06 21:47:00,37.9,30.0,30.06,NW,321,5.0,9.0,73,0.00,,,0.00,Wunderground v.1.15,2013-01-07 02:47:00,
2013-01-06 21:52:00,37.9,30.0,30.06,WNW,284,5.0,9.0,73,0.00,,,0.00,Wunderground v.1.15,2013-01-07 02:52:00,
2013-01-06 21:57:00,37.9,30.0,30.05,North,5,6.0,9.0,73,0.00,,,0.00,Wunderground v.1.15,2013-01-07 02:57:00,
2013-01-06 22:02:00,37.9,29.7,30.05,NW,305,5.0,8.0,72,0.00,,,0.00,Wunderground v.1.15,2013-01-07 03:02:00,
2013-01-06 22:07:00,37.9,30.0,30.05,NW,317,5.0,8.0,73,0.00,,,0.00,Wunderground v.1.15,2013-01-07 03:07:00,
2013-01-06 22:13:00,38.0,29.8,30.06,NW,325,6.0,8.0,72,0.00,,,0.00,Wunderground v.1.15,2013-01-07 03:13:00,
2013-01-06 22:19:00,38.1,29.9,30.06,NW,308,6.0,8.0,72,0.00,,,0.00,Wunderground v.1.15,2013-01-07 03:19:00,
2013-01-06 22:24:00,38.2,30.0,30.06,NW,304,6.0,8.0,72,0.00,,,0.00,Wunderground v.1.15,2013-01-07 03:24:00,
2013-01-06 22:29:00,38.2,29.6,30.06,WNW,299,6.0,8.0,71,0.00,,,0.00,Wunderground v.1.15,2013-01-07 03:29:00,
2013-01-06 22:34:00,38.3,29.4,30.06,NW,318,7.0,12.0,70,0.00,,,0.00,Wunderground v.1.15,2013-01-07 03:34:00,
2013-01-06 22:39:00,38.3,29.0,30.06,NW,319,7.0,12.0,69,0.00,,,0.00,Wunderground v.1.15,2013-01-07 03:39:00,
2013-01-06 22:44:00,38.4,28.8,30.07,NW,311,7.0,15.0,68,0.00,,,0.00,Wunderground v.1.15,2013-01-07 03:44:00,
2013-01-06 22:49:00,38.6,28.6,30.07,WNW,298,9.0,15.0,67,0.00,,,0.00,Wunderground v.1.15,2013-01-07 03:49:00,
2013-01-06 22:54:00,38.6,28.6,30.07,NW,311,9.0,9.0,67,0.00,,,0.00,Wunderground v.1.15,2013-01-07 03:54:00,
2013-01-06 22:59:00,38.5,28.5,30.08,WNW,284,6.0,9.0,67,0.00,,,0.00,Wunderground v.1.15,2013-01-07 03:59:00,
2013-01-06 23:04:00,38.4,28.4,30.08,NW,317,6.0,8.0,67,0.00,,,0.00,Wunderground v.1.15,2013-01-07 04:04:00,
2013-01-06 23:09:00,38.3,28.3,30.08,NW,308,6.0,6.0,67,0.00,,,0.00,Wunderground v.1.15,2013-01-07 04:09:00,
2013-01-06 23:14:00,38.1,28.5,30.08,NNW,327,4.0,8.0,68,0.00,,,0.00,Wunderground v.1.15,2013-01-07 04:14:00,
2013-01-06 23:19:00,38.1,28.5,30.08,NNW,328,5.0,5.0,68,0.00,,,0.00,Wunderground v.1.15,2013-01-07 04:19:00,
2013-01-06 23:25:00,38.0,28.4,30.08,WNW,284,7.0,14.0,68,0.00,,,0.00,Wunderground v.1.15,2013-01-07 04:25:00,
2013-01-06 23:30:00,37.9,28.3,30.08,NW,316,6.0,10.0,68,0.00,,,0.00,Wunderground v.1.15,2013-01-07 04:30:00,
2013-01-06 23:35:00,37.8,28.5,30.08,WNW,296,6.0,13.0,69,0.00,,,0.00,Wunderground v.1.15,2013-01-07 04:35:00,
2013-01-06 23:40:00,37.6,28.3,30.08,NW,304,6.0,8.0,69,0.00,,,0.00,Wunderground v.1.15,2013-01-07 04:40:00,
2013-01-06 23:45:00,37.4,28.2,30.09,NW,321,7.0,9.0,69,0.00,,,0.00,Wunderground v.1.15,2013-01-07 04:45:00,
2013-01-06 23:50:00,37.4,28.5,30.09,WNW,285,7.0,8.0,70,0.00,,,0.00,Wunderground v.1.15,2013-01-07 04:50:00,
2013-01-06 23:55:00,37.2,28.3,30.09,NW,307,7.0,8.0,70,0.00,,,0.00,Wunderground v.1.15,2013-01-07 04:55:00,